Weather History for Litchfield, MN

Change the Weather History Date:

Wednesday, October 2, 2013

  Actual Average Record
Temperature  
Mean Temperature 60 °F -  
Max Temperature 75 °F 68 °F 90 °F (1953)
Min Temperature 44 °F 41 °F 3 °F (1999)
Degree Days  
Heating Degree Days 6    
Growing Degree Days 10 (Base 50)    
Moisture  
Dew Point 43 °F    
Average Humidity 64    
Maximum Humidity 100    
Minimum Humidity 22    
Precipitation  
Precipitation 0.00 in - - ()
Sea Level Pressure  
Sea Level Pressure 29.95 in    
Wind  
Wind Speed 5 mph (ESE)    
Max Wind Speed 22 mph    
Max Gust Speed 28 mph    
Visibility 10 miles    
Events Rain , Thunderstorm    
Averages and records for this station are not official NWS values.
T = Trace of Precipitation, MM = Missing Value Source: NWS Daily Summary

Daily Weather History Graph

Daily Weather History Graph

Search for Another Location

Airport:

Trip Planner

Search our weather history database for the weather conditions in past years. The results will help you decide how hot, cold, wet, or windy it might be!

Date:

Astronomy

Oct. 02, 2013 Rise Set
Actual Time 7:17 AM CDT 6:56 PM CDT
Civil Twilight 6:48 AM CDT 7:25 PM CDT
Nautical Twilight 6:14 AM CDT 7:59 PM CDT
Astronomical Twilight 5:39 AM CDT 8:33 PM CDT
Moon 4:46 AM CDT (10/2) 5:36 PM CDT (10/2)
Length of Visible Light 12h 36m
Length of Day
11h 38m
Waning Crescent, 6% of the Moon is Illuminated
Oct 2
Waning Crescent
Oct 4
New
Oct 11
First Quarter
Oct 18
Full
Oct 26
Last Quarter

Hourly Weather History & Observations

Time (CDT) Temp. Windchill Dew Point Humidity Pressure Visibility Wind Dir Wind Speed Gust Speed Precip Events Conditions
12:12 AM 55.4 °F - 37.4 °F 51% 30.01 in 10.0 mi Calm Calm - N/A   Unknown
12:32 AM 55.4 °F - 37.4 °F 51% 30.01 in 10.0 mi Calm Calm - N/A   Scattered Clouds
12:53 AM 55.4 °F - 39.2 °F 54% 30.01 in 10.0 mi West 4.6 mph - N/A   Scattered Clouds
1:12 AM 55.4 °F - 37.4 °F 51% 30.02 in 10.0 mi WSW 4.6 mph - N/A   Scattered Clouds
1:32 AM 53.6 °F - 39.2 °F 58% 30.02 in 10.0 mi Calm Calm - N/A   Unknown
1:53 AM 51.8 °F - 39.2 °F 62% - 10.0 mi Calm Calm - N/A   Unknown
2:12 AM 51.8 °F - 39.2 °F 62% 30.03 in 10.0 mi Calm Calm - N/A   Unknown
2:33 AM 48.2 °F - 39.2 °F 71% 30.03 in 10.0 mi Calm Calm - N/A   Unknown
2:52 AM 48.2 °F - 39.2 °F 71% 30.03 in 10.0 mi Calm Calm - N/A   Unknown
3:13 AM 48.2 °F - 39.2 °F 71% 30.03 in 10.0 mi Calm Calm - N/A   Clear
3:32 AM 48.2 °F - 39.2 °F 71% 30.03 in 10.0 mi Calm Calm - N/A   Unknown
3:53 AM 44.6 °F - 41.0 °F 87% 30.03 in 10.0 mi Calm Calm - N/A   Scattered Clouds
4:13 AM 46.4 °F - 42.8 °F 87% 30.03 in 10.0 mi Calm Calm - N/A   Scattered Clouds
4:32 AM 44.6 °F - 42.8 °F 93% 30.03 in 10.0 mi Calm Calm - N/A   Unknown
4:53 AM 46.4 °F - 42.8 °F 87% 30.02 in 10.0 mi Calm Calm - N/A   Scattered Clouds
5:13 AM 46.4 °F - 42.8 °F 87% 30.02 in 10.0 mi Calm Calm - N/A   Scattered Clouds
5:32 AM 44.6 °F - 42.8 °F 93% 30.02 in 10.0 mi Calm Calm - N/A   Unknown
5:53 AM 44.6 °F - 42.8 °F 93% 30.02 in 10.0 mi Calm Calm - N/A   Scattered Clouds
6:13 AM 46.4 °F - 42.8 °F 87% 30.02 in 10.0 mi Calm Calm - N/A   Scattered Clouds
6:32 AM 46.4 °F - 42.8 °F 87% 30.02 in 10.0 mi Calm Calm - N/A   Scattered Clouds
6:53 AM 44.6 °F - 42.8 °F 93% 30.02 in 10.0 mi Calm Calm - N/A   Scattered Clouds
7:13 AM 44.6 °F - 42.8 °F 93% 30.02 in 10.0 mi Calm Calm - N/A   Unknown
7:32 AM 44.6 °F - 42.8 °F 93% 30.02 in 10.0 mi Calm Calm - N/A   Unknown
7:53 AM 46.4 °F 44.3 °F 42.8 °F 87% 30.03 in 10.0 mi SE 4.6 mph - N/A   Clear
8:13 AM 50.0 °F - 46.4 °F 87% 30.03 in 10.0 mi SE 4.6 mph - N/A   Clear
8:32 AM 53.6 °F - 44.6 °F 72% 30.03 in 10.0 mi SE 5.8 mph - N/A   Unknown
8:53 AM 55.4 °F - 44.6 °F 67% 30.03 in 10.0 mi SE 4.6 mph - N/A   Scattered Clouds
9:12 AM 57.2 °F - 44.6 °F 63% 30.03 in 10.0 mi SE 5.8 mph - N/A   Clear
9:32 AM 60.8 °F - 44.6 °F 55% 30.03 in 10.0 mi SE 8.1 mph - N/A   Unknown
9:53 AM 62.6 °F - 39.2 °F 42% 30.03 in 10.0 mi SE 9.2 mph 17.3 mph N/A   Clear
10:12 AM 64.4 °F - 41.0 °F 42% 30.02 in 10.0 mi SE 10.4 mph - N/A   Clear
10:33 AM 66.2 °F - 39.2 °F 37% 30.01 in 10.0 mi SE 12.7 mph - N/A   Clear
10:52 AM 68.0 °F - 37.4 °F 33% 30.01 in 10.0 mi SE 9.2 mph - N/A   Clear
11:12 AM 69.8 °F - 35.6 °F 28% 30.01 in 10.0 mi SE 11.5 mph 17.3 mph N/A   Clear
11:33 AM 71.6 °F - 35.6 °F 27% 30.01 in 10.0 mi SSE 10.4 mph - N/A   Clear
11:52 AM 71.6 °F - 37.4 °F 29% 30.01 in 10.0 mi SE 9.2 mph - N/A   Mostly Cloudy
12:13 PM 73.4 °F - 37.4 °F 27% 30.00 in 10.0 mi ESE 15.0 mph 23.0 mph N/A   Overcast
12:32 PM 73.4 °F - 33.8 °F 23% 30.00 in 10.0 mi ESE 17.3 mph 21.9 mph N/A   Overcast
12:53 PM 73.4 °F - 35.6 °F 25% 29.99 in 10.0 mi SE 13.8 mph - N/A   Overcast
1:12 PM 73.4 °F - 33.8 °F 23% 29.97 in 10.0 mi SE 11.5 mph 18.4 mph N/A   Overcast
1:33 PM 73.4 °F - 33.8 °F 23% 29.95 in 10.0 mi SE 11.5 mph 19.6 mph N/A   Overcast
1:53 PM 75.2 °F - 33.8 °F 22% 29.93 in 10.0 mi SE 20.7 mph 24.2 mph N/A   Scattered Clouds
2:12 PM 73.4 °F - 35.6 °F 25% 29.91 in 10.0 mi SE 15.0 mph 23.0 mph N/A   Scattered Clouds
2:33 PM 73.4 °F - 35.6 °F 25% 29.90 in 10.0 mi SSE 15.0 mph 23.0 mph N/A   Scattered Clouds
2:53 PM 75.2 °F - 37.4 °F 25% 29.88 in 10.0 mi SE 9.2 mph 23.0 mph N/A   Mostly Cloudy
3:12 PM 75.2 °F - 35.6 °F 24% 29.87 in 10.0 mi SE 16.1 mph 27.6 mph N/A   Scattered Clouds
3:33 PM 75.2 °F - 35.6 °F 24% 29.86 in 10.0 mi SE 15.0 mph 23.0 mph N/A   Mostly Cloudy
3:53 PM 75.2 °F - 37.4 °F 25% 29.86 in 10.0 mi SSE 11.5 mph 18.4 mph N/A   Overcast
4:12 PM 75.2 °F - 37.4 °F 25% 29.84 in 10.0 mi SE 12.7 mph 23.0 mph N/A   Mostly Cloudy
4:33 PM 73.4 °F - 37.4 °F 27% 29.83 in 10.0 mi SE 16.1 mph 23.0 mph N/A Thunderstorm Mostly Cloudy
4:52 PM 75.2 °F - 37.4 °F 25% 29.83 in 10.0 mi SE 12.7 mph 19.6 mph N/A Thunderstorm Thunderstorm
5:12 PM 73.4 °F - 39.2 °F 29% 29.87 in 10.0 mi North 17.3 mph 23.0 mph N/A   Overcast
5:33 PM 66.2 °F - 44.6 °F 46% 29.89 in 10.0 mi North 21.9 mph 27.6 mph N/A Thunderstorm Thunderstorm
5:52 PM 60.8 °F - 48.2 °F 63% 29.88 in 10.0 mi NE 11.5 mph - N/A Rain , Thunderstorm Light Thunderstorms and Rain
6:12 PM 59.0 °F - 50.0 °F 72% 29.86 in 10.0 mi ENE 10.4 mph 18.4 mph N/A   Overcast
6:33 PM 57.2 °F - 53.6 °F 88% 29.85 in 10.0 mi ENE 10.4 mph 17.3 mph N/A Rain , Thunderstorm Light Thunderstorms and Rain
6:52 PM 57.2 °F - 53.6 °F 88% 29.86 in 7.0 mi ENE 11.5 mph - N/A Rain Light Rain
7:12 PM 57.2 °F - 53.6 °F 88% 29.86 in 10.0 mi NE 10.4 mph 18.4 mph N/A Thunderstorm Overcast
7:33 PM 57.2 °F - 53.6 °F 88% 29.91 in 10.0 mi NNW 18.4 mph - N/A Rain , Thunderstorm Light Thunderstorms and Rain
7:52 PM 55.4 °F - 53.6 °F 94% 29.92 in 3.0 mi NE 16.1 mph 23.0 mph N/A Rain , Thunderstorm Heavy Thunderstorms and Rain
8:12 PM 55.4 °F - 53.6 °F 94% 29.87 in 4.0 mi ENE 16.1 mph 21.9 mph N/A Rain , Thunderstorm Light Thunderstorms and Rain
8:33 PM 55.4 °F - 55.4 °F 100% 29.87 in 10.0 mi East 16.1 mph 20.7 mph N/A Rain , Thunderstorm Light Thunderstorms and Rain
8:52 PM 55.4 °F - 55.4 °F 100% 29.88 in 10.0 mi East 13.8 mph - N/A Thunderstorm Mostly Cloudy
9:12 PM 55.4 °F - 55.4 °F 100% 29.87 in 10.0 mi East 11.5 mph - N/A   Mostly Cloudy
9:33 PM 55.4 °F - 55.4 °F 100% 29.87 in 10.0 mi ENE 9.2 mph - N/A   Overcast
9:53 PM 55.4 °F - 55.4 °F 100% 29.87 in 10.0 mi East 9.2 mph - N/A Thunderstorm Overcast
10:12 PM 55.4 °F - 55.4 °F 100% 29.88 in 10.0 mi NE 5.8 mph - N/A Thunderstorm Overcast
10:33 PM 55.4 °F - 55.4 °F 100% 29.88 in 10.0 mi NE 6.9 mph - N/A   Overcast
10:53 PM 55.4 °F - 55.4 °F 100% 29.88 in 10.0 mi ENE 8.1 mph - N/A   Overcast
11:13 PM 55.4 °F - 55.4 °F 100% 29.87 in 10.0 mi NE 6.9 mph - N/A   Scattered Clouds
11:32 PM 55.4 °F - 55.4 °F 100% 29.87 in 10.0 mi NE 5.8 mph - N/A   Mostly Cloudy
11:53 PM 55.4 °F - 55.4 °F 100% 29.87 in 10.0 mi NE 5.8 mph - N/A   Overcast